Time,TemperatureF,DewpointF,PressureIn,WindDirection,WindDirectionDegrees,WindSpeedMPH,WindSpeedGustMPH,Humidity,HourlyPrecipIn,Conditions,Clouds,dailyrainin,SoftwareType,DateUTC
2014-01-15 00:09:00,31.8,31.3,29.60,SSE,157,1.6,-999.0,98,-99.99,,,0.00,Acu-Link.com,2014-01-15 05:09:00,
2014-01-15 00:24:00,32.2,31.7,29.60,SSE,157,0.0,-999.0,98,-99.99,,,0.00,Acu-Link.com,2014-01-15 05:24:00,
2014-01-15 00:40:00,32.5,32.0,29.59,SSW,202,1.1,-999.0,98,-99.99,,,0.00,Acu-Link.com,2014-01-15 05:40:00,
2014-01-15 00:55:00,32.5,32.0,29.59,SSW,202,0.0,-999.0,98,-99.99,,,0.00,Acu-Link.com,2014-01-15 05:55:00,
2014-01-15 01:10:00,32.7,32.2,29.58,SW,225,2.2,-999.0,98,-99.99,,,0.00,Acu-Link.com,2014-01-15 06:10:00,
2014-01-15 01:25:00,33.3,32.8,29.58,SW,225,4.3,-999.0,98,-99.99,,,0.00,Acu-Link.com,2014-01-15 06:25:00,
2014-01-15 01:41:00,33.1,32.6,29.58,SW,225,0.0,-999.0,98,-99.99,,,0.00,Acu-Link.com,2014-01-15 06:41:00,
2014-01-15 01:56:00,33.3,32.8,29.58,SW,225,0.0,-999.0,98,-99.99,,,0.00,Acu-Link.com,2014-01-15 06:56:00,
2014-01-15 02:11:00,33.4,32.9,29.58,SW,225,0.0,-999.0,98,-99.99,,,0.00,Acu-Link.com,2014-01-15 07:11:00,
2014-01-15 02:26:00,33.4,32.9,29.58,SW,225,1.6,-999.0,98,-99.99,,,0.00,Acu-Link.com,2014-01-15 07:26:00,
2014-01-15 02:41:00,34.0,33.5,29.58,West,270,7.4,-999.0,98,-99.99,,,0.00,Acu-Link.com,2014-01-15 07:41:00,
2014-01-15 02:57:00,34.2,33.7,29.59,SW,225,7.4,-999.0,98,-99.99,,,0.00,Acu-Link.com,2014-01-15 07:57:00,
2014-01-15 03:12:00,34.2,33.7,29.59,SSW,202,5.1,-999.0,98,-99.99,,,0.00,Acu-Link.com,2014-01-15 08:12:00,
2014-01-15 08:21:00,29.3,28.8,29.69,WSW,247,9.4,-999.0,98,-99.99,,,0.00,Acu-Link.com,2014-01-15 13:21:00,
2014-01-15 08:37:00,28.9,28.4,29.70,WSW,247,10.3,-999.0,98,-99.99,,,0.00,Acu-Link.com,2014-01-15 13:37:00,
2014-01-15 08:52:00,29.1,28.6,29.71,WSW,247,12.5,-999.0,98,-99.99,,,0.00,Acu-Link.com,2014-01-15 13:52:00,
2014-01-15 09:07:00,29.1,28.6,29.72,SW,225,11.9,-999.0,98,-99.99,,,0.00,Acu-Link.com,2014-01-15 14:07:00,
2014-01-15 09:22:00,29.5,29.0,29.72,SSW,202,8.3,-999.0,98,-99.99,,,0.00,Acu-Link.com,2014-01-15 14:22:00,
2014-01-15 09:38:00,29.7,29.2,29.72,SSW,202,9.4,-999.0,98,-99.99,,,0.00,Acu-Link.com,2014-01-15 14:38:00,
2014-01-15 09:53:00,29.5,29.0,29.73,SSW,202,10.3,-999.0,98,-99.99,,,0.00,Acu-Link.com,2014-01-15 14:53:00,
2014-01-15 10:08:00,29.5,29.0,29.74,SW,225,18.1,-999.0,98,-99.99,,,0.00,Acu-Link.com,2014-01-15 15:08:00,
2014-01-15 10:23:00,29.5,29.0,29.74,SW,225,5.8,-999.0,98,-99.99,,,0.00,Acu-Link.com,2014-01-15 15:23:00,
2014-01-15 10:38:00,30.0,29.5,29.74,SW,225,15.4,-999.0,98,-99.99,,,0.00,Acu-Link.com,2014-01-15 15:38:00,
2014-01-15 10:54:00,30.6,30.1,29.74,WSW,247,9.4,-999.0,98,-99.99,,,0.00,Acu-Link.com,2014-01-15 15:54:00,
2014-01-15 11:09:00,30.6,30.1,29.75,SW,225,9.8,-999.0,98,-99.99,,,0.00,Acu-Link.com,2014-01-15 16:09:00,
2014-01-15 11:24:00,30.6,30.1,29.75,SW,225,19.0,-999.0,98,-99.99,,,0.00,Acu-Link.com,2014-01-15 16:24:00,
2014-01-15 11:39:00,29.7,29.2,29.75,WSW,247,9.4,-999.0,98,-99.99,,,0.00,Acu-Link.com,2014-01-15 16:39:00,
2014-01-15 11:54:00,29.3,28.8,29.75,SW,225,6.3,-999.0,98,-99.99,,,0.00,Acu-Link.com,2014-01-15 16:54:00,
2014-01-15 12:10:00,29.3,28.8,29.75,SW,225,11.0,-999.0,98,-99.99,,,0.00,Acu-Link.com,2014-01-15 17:10:00,
2014-01-15 12:25:00,29.1,28.6,29.75,SW,225,12.5,-999.0,98,-99.99,,,0.00,Acu-Link.com,2014-01-15 17:25:00,
2014-01-15 12:40:00,29.7,29.2,29.74,SW,225,7.4,-999.0,98,-99.99,,,0.00,Acu-Link.com,2014-01-15 17:40:00,
2014-01-15 12:55:00,29.8,29.3,29.74,SSW,202,7.8,-999.0,98,-99.99,,,0.00,Acu-Link.com,2014-01-15 17:55:00,
2014-01-15 13:10:00,30.0,29.5,29.75,SW,225,9.8,-999.0,98,-99.99,,,0.00,Acu-Link.com,2014-01-15 18:10:00,
2014-01-15 13:26:00,30.2,29.7,29.75,SSW,202,11.9,-999.0,98,-99.99,,,0.00,Acu-Link.com,2014-01-15 18:26:00,
2014-01-15 13:41:00,30.6,30.1,29.76,SSW,202,9.4,-999.0,98,-99.99,,,0.00,Acu-Link.com,2014-01-15 18:41:00,
2014-01-15 13:56:00,30.7,30.2,29.75,SSW,202,9.8,-999.0,98,-99.99,,,0.00,Acu-Link.com,2014-01-15 18:56:00,
2014-01-15 14:11:00,30.7,30.2,29.75,West,270,6.7,-999.0,98,-99.99,,,0.00,Acu-Link.com,2014-01-15 19:11:00,
2014-01-15 14:27:00,30.4,29.9,29.76,SW,225,15.4,-999.0,98,-99.99,,,0.00,Acu-Link.com,2014-01-15 19:27:00,
2014-01-15 14:42:00,29.5,29.0,29.77,West,270,11.4,-999.0,98,-99.99,,,0.00,Acu-Link.com,2014-01-15 19:42:00,
2014-01-15 14:57:00,30.0,29.5,29.77,SW,225,10.3,-999.0,98,-99.99,,,0.00,Acu-Link.com,2014-01-15 19:57:00,
2014-01-15 15:12:00,29.5,29.0,29.77,SSW,202,14.1,-999.0,98,-99.99,,,0.00,Acu-Link.com,2014-01-15 20:12:00,
2014-01-15 15:27:00,29.1,28.6,29.76,SW,225,8.9,-999.0,98,-99.99,,,0.00,Acu-Link.com,2014-01-15 20:27:00,
2014-01-15 15:43:00,28.8,28.3,29.77,SSW,202,11.0,-999.0,98,-99.99,,,0.00,Acu-Link.com,2014-01-15 20:43:00,
2014-01-15 15:58:00,28.6,28.1,29.77,SW,225,8.3,-999.0,98,-99.99,,,0.00,Acu-Link.com,2014-01-15 20:58:00,
2014-01-15 16:13:00,28.0,27.5,29.77,SW,225,10.3,-999.0,98,-99.99,,,0.00,Acu-Link.com,2014-01-15 21:13:00,
2014-01-15 16:28:00,27.7,27.2,29.78,SW,225,7.8,-999.0,98,-99.99,,,0.00,Acu-Link.com,2014-01-15 21:28:00,
2014-01-15 16:43:00,26.8,26.3,29.78,West,270,5.8,-999.0,98,-99.99,,,0.00,Acu-Link.com,2014-01-15 21:43:00,
2014-01-15 16:59:00,26.6,26.1,29.79,WSW,247,9.8,-999.0,98,-99.99,,,0.00,Acu-Link.com,2014-01-15 21:59:00,
2014-01-15 17:14:00,26.4,25.9,29.79,SW,225,6.3,-999.0,98,-99.99,,,0.00,Acu-Link.com,2014-01-15 22:14:00,
2014-01-15 17:29:00,26.2,25.8,29.79,SSW,202,8.3,-999.0,98,-99.99,,,0.00,Acu-Link.com,2014-01-15 22:29:00,
2014-01-15 17:44:00,27.1,26.7,29.79,SW,225,4.3,-999.0,98,-99.99,,,0.00,Acu-Link.com,2014-01-15 22:44:00,
2014-01-15 17:59:00,26.1,25.6,29.80,SW,225,7.4,-999.0,98,-99.99,,,0.00,Acu-Link.com,2014-01-15 22:59:00,
2014-01-15 18:15:00,25.7,25.2,29.80,SW,225,6.3,-999.0,98,-99.99,,,0.00,Acu-Link.com,2014-01-15 23:15:00,
2014-01-15 18:30:00,25.9,25.4,29.80,SW,225,5.8,-999.0,98,-99.99,,,0.00,Acu-Link.com,2014-01-15 23:30:00,
2014-01-15 18:45:00,25.7,25.2,29.80,SW,225,4.3,-999.0,98,-99.99,,,0.00,Acu-Link.com,2014-01-15 23:45:00,
2014-01-15 19:00:00,26.1,25.6,29.81,SW,225,8.3,-999.0,98,-99.99,,,0.00,Acu-Link.com,2014-01-16 00:00:00,
2014-01-15 19:16:00,26.2,25.8,29.81,SW,225,5.1,-999.0,98,-99.99,,,0.00,Acu-Link.com,2014-01-16 00:16:00,
2014-01-15 19:31:00,26.2,25.8,29.82,WSW,247,6.3,-999.0,98,-99.99,,,0.00,Acu-Link.com,2014-01-16 00:31:00,
2014-01-15 19:46:00,26.6,26.1,29.83,SSW,202,7.4,-999.0,98,-99.99,,,0.00,Acu-Link.com,2014-01-16 00:46:00,
2014-01-15 20:01:00,26.8,26.3,29.83,SW,225,5.1,-999.0,98,-99.99,,,0.00,Acu-Link.com,2014-01-16 01:01:00,
2014-01-15 20:16:00,26.8,26.3,29.82,West,270,6.7,-999.0,98,-99.99,,,0.00,Acu-Link.com,2014-01-16 01:16:00,
2014-01-15 20:32:00,26.6,26.1,29.83,SSW,202,5.8,-999.0,98,-99.99,,,0.00,Acu-Link.com,2014-01-16 01:32:00,
2014-01-15 20:47:00,26.6,26.1,29.83,SW,225,5.8,-999.0,98,-99.99,,,0.00,Acu-Link.com,2014-01-16 01:47:00,
2014-01-15 21:02:00,26.6,26.1,29.83,SW,225,3.8,-999.0,98,-99.99,,,0.00,Acu-Link.com,2014-01-16 02:02:00,
2014-01-15 21:17:00,26.6,26.1,29.83,WSW,247,5.8,-999.0,98,-99.99,,,0.00,Acu-Link.com,2014-01-16 02:17:00,
2014-01-15 21:32:00,26.6,26.1,29.83,SW,225,6.7,-999.0,98,-99.99,,,0.00,Acu-Link.com,2014-01-16 02:32:00,
2014-01-15 21:48:00,26.6,26.1,29.83,SSW,202,6.3,-999.0,98,-99.99,,,0.00,Acu-Link.com,2014-01-16 02:48:00,
2014-01-15 22:03:00,25.9,25.4,29.83,SW,225,4.3,-999.0,98,-99.99,,,0.00,Acu-Link.com,2014-01-16 03:03:00,
2014-01-15 22:18:00,25.5,25.0,29.82,WSW,247,3.8,-999.0,98,-99.99,,,0.00,Acu-Link.com,2014-01-16 03:18:00,
2014-01-15 22:33:00,25.3,24.9,29.82,West,270,5.1,-999.0,98,-99.99,,,0.00,Acu-Link.com,2014-01-16 03:33:00,
2014-01-15 22:48:00,25.5,25.0,29.81,SW,225,4.3,-999.0,98,-99.99,,,0.00,Acu-Link.com,2014-01-16 03:48:00,
2014-01-15 23:04:00,25.7,25.2,29.81,SW,225,5.8,-999.0,98,-99.99,,,0.00,Acu-Link.com,2014-01-16 04:04:00,
2014-01-15 23:19:00,25.9,25.4,29.81,SW,225,6.7,-999.0,98,-99.99,,,0.00,Acu-Link.com,2014-01-16 04:19:00,
2014-01-15 23:34:00,26.1,25.6,29.80,SW,225,6.3,-999.0,98,-99.99,,,0.00,Acu-Link.com,2014-01-16 04:34:00,
2014-01-15 23:49:00,26.1,25.6,29.80,West,270,3.8,-999.0,98,-99.99,,,0.00,Acu-Link.com,2014-01-16 04:49:00,